This is the latest recevied weather packets stored in our database for station/object W8LMG. If no packets are shown the sender has not sent any weather packets the latest 10 day(s).
| Time | Temp. | Humidity | Pressure | Rain* | Wind** | Luminosity | Snow |
|---|---|---|---|---|---|---|---|
| 1777901041 | 11.67° C | 68% | 1015.9 hPa | 0 mm | - | 194 W/m² | - |
| 1777900738 | 10.56° C | 79% | 1016 hPa | 0 mm | - | 390 W/m² | - |
| 1777900435 | 10° C | 83% | 1015.9 hPa | 0 mm | - | 275 W/m² | - |
| 1777900132 | 9.44° C | 83% | 1016 hPa | 0 mm | - | 244 W/m² | - |
| 1777899829 | 8.89° C | 85% | 1016 hPa | 0 mm | - | 304 W/m² | - |
| 1777899526 | 8.89° C | 86% | 1015.9 hPa | 0 mm | - | 267 W/m² | - |
| 1777899223 | 8.33° C | 88% | 1015.9 hPa | 0 mm | - | 249 W/m² | - |
| 1777898920 | 7.78° C | 89% | 1015.9 hPa | 0 mm | - | 266 W/m² | - |
| 1777898618 | 7.22° C | 91% | 1015.9 hPa | 0 mm | - | 146 W/m² | - |
| 1777898315 | 6.67° C | 93% | 1016 hPa | 0 mm | - | 158 W/m² | - |
| 1777898012 | 6.11° C | 97% | 1016.2 hPa | 0 mm | - | 130 W/m² | - |
| 1777897708 | 5° C | 99% | 1016.2 hPa | 0 mm | - | 125 W/m² | - |
| 1777897405 | 5.56° C | 99% | 1016.1 hPa | 0 mm | - | 97 W/m² | - |
| 1777897101 | 5° C | 99% | 1016.2 hPa | 0 mm | - | 55 W/m² | - |
| 1777896797 | 5° C | 99% | 1016.1 hPa | 0 mm | - | 48 W/m² | - |
| 1777896495 | 4.44° C | 99% | 1015.9 hPa | 0 mm | - | 53 W/m² | - |
| 1777896192 | 3.89° C | 99% | 1016.1 hPa | 0 mm | - | 83 W/m² | - |
| 1777895890 | 3.89° C | 99% | 1016.2 hPa | 0 mm | - | 41 W/m² | - |
| 1777895587 | 3.89° C | 99% | 1016.2 hPa | 0 mm | - | 33 W/m² | - |
| 1777895284 | 3.89° C | 99% | 1016.1 hPa | 0 mm | - | 32 W/m² | - |
| 1777894982 | 3.89° C | 99% | 1016.3 hPa | 0 mm | - | 36 W/m² | - |
| 1777894679 | 3.89° C | 99% | 1016.4 hPa | 0 mm | - | 30 W/m² | - |
| 1777894375 | 3.89° C | 99% | 1016.4 hPa | 0 mm | - | 30 W/m² | - |
| 1777894073 | 3.89° C | 99% | 1016.4 hPa | 0 mm | - | 27 W/m² | - |
| 1777893769 | 3.89° C | 99% | 1016.3 hPa | 0 mm | - | 24 W/m² | - |
* Rain latest hour (hover to see other rain measurements)
** Current wind speed in m/s (hover to see current wind gust speed)